Weather in Aarau

Switzerland     47°23′30″N   8°02′59″E
temp.,
°C
wind,
m/s
gust,
m/s
humid.,
%
clouds,
%
prec.,
mm/h
press.,
hPa
HPBL,
m
24 may, tue
tue2423:00+15wnw399784 0.8 1007506
02:00+14wnw2896100 1.1 1007433
05:00+12wnw1298100 0.1 100737
08:00+12wnw3995100 2.7 1010898
11:00+11w2795100 0.9 1011804
14:00+12sw1495100 1.6 1012229
17:00+12s2295100 0.6 101274
20:00+11s1194100 0.6 101331
25 may, wed
wed2523:00+9sse1196100 0.0 101511
02:00+9ene1196100 0.0 101510
05:00+8sw0096100 0.0 101610
08:00+11sse0193100 0.0 1018134
11:00+17nnw00588 0.0 1017735
14:00+21wnw23415 0.0 10171825
17:00+21wnw34427 0.0 10171618
20:00+16wnw256819 0.0 1018110
26 may, thu
thu2623:00+12w227977 0.0 102149
02:00+10wnw118826 0.0 102325
05:00+10w119073 0.0 102417
08:00+13w11773 0.0 1025196
11:00+18wnw34510 0.0 10251100
14:00+21wnw44450 0.0 10241430
17:00+21wnw45500 0.0 10231361
20:00+18w22750 0.0 102248
27 may, fri
fri2723:00+12nw11940 0.0 102411
02:00+10wnw11950 0.0 102410
05:00+9wsw019734 0.0 102410
08:00+13wsw128699 0.0 1024189
11:00+19wnw3459100 0.0 10231023
14:00+22wnw56486 0.0 10211605
17:00+22w56436 0.0 10201753
20:00+18nw367311 0.0 1021302
28 may, sat
sat2823:00+14wnw1180100 0.0 102326
02:00+9nw11956 0.0 102316
05:00+7nw119730 0.0 102311
08:00+11wnw128197 0.0 1023235
11:00+16wnw224684 0.0 10211120
14:00+19w4429100 0.0 10201507
17:00+18w4435100 0.0 10191119
20:00+15n11679 0.0 101938